Regional Weather Roundup
Issued by NWS Goodland, KS

Home | Current Version | Previous Version | Text Only | Print | Product List | Glossary On
Versions: 1 2 3 4 5 6 7 8 9 10 11 12 13 14 15 16 17 18 19 20 21 22 23 24 25 26 27 28 29 30 31 32 33 34 35 36 37 38 39 40 41 42 43 44 45 46 47 48 49 50
000
ASUS43 KGLD 030608
RWRGLD

GOODLAND FORECAST AREA HOURLY WEATHER ROUNDUP
NATIONAL WEATHER SERVICE GOODLAND KS
1200 AM MDT MON AUG 03 2015

...OFFICIAL OBSERVATIONS...

CITY           SKY/WX    TMP DP  RH WIND       PRES   REMARKS
GOODLAND KS    CLEAR     72  55  55 S12       30.01S
HILL CITY KS   CLEAR     71  63  75 W3        29.92S
IMPERIAL NEB   PTCLDY    74  52  46 SW7       29.98F
MCCOOK NEB     PTCLDY    70  57  63 SW7       29.94S
AKRON CO       PTCLDY    69  52  54 S9        30.07S
BURLINGTON CO  PTCLDY    70  58  65 S10       30.06S
LIMON CO       MOCLDY    61  49  64 CALM      30.13S
$$

...UNOFFICIAL OBSERVATIONS...

CITY           SKY/WX    TMP DP  RH WIND       PRES   REMARKS
COLBY KS       CLEAR     70  57  64 CALM      29.99S
NORTON KS      CLEAR     66  55  68 SW7       29.92S
SHARON SPRINGS   N/A     70  60  71 S6          N/A
KIT CARSON CO    N/A     72  55  55 MISG        N/A
$$



USA.gov is the U.S. government's official web portal to all federal, state and local government web resources and services.